Wind_Speed
6 6 6 5 5 4 3 3 3 4 4 4 5 5 6 7 7 6 6 6 6 6 6 5 5 6 7 6 5 5 8 9 11 14 12 10 14 13 11 10 8 9 10 7 7 6 5 5 6 9 6 3 0 2 1 3 2 4 3 2 2 1 1 2 1 3 6 4 4 8 7 9 7 4 3 9 18 13 15 17 16 21 22 22 24 27 26 24
6 6 5 5 4 4 4 4 4 5 5 6 6 6 7 7 7 7 7 6 6 6 5 5 4 5 6 5 4 7 9 6 10 14 12 14 16 14 10 9 8 8 9 6 5 5 4 4 6 8 4 0 1 1 0 1 3 3 3 3 3 4 1 3 2 3 8 8 8 10 9 12 7 4 4 9 11 14 16 13 13 17 18 23 27 30 32 32
6 6 5 5 4 4 4 5 6 6 6 7 7 7 8 8 8 7 7 7 7 6 5 4 3 3 5 3 3 7 7 1 6 7 11 15 16 14 10 7 7 8 9 6 5 4 1 4 5 4 3 1 3 1 1 1 1 3 3 4 3 5 3 7 5 8 10 11 12 10 12 18 12 6 4 10 14 17 15 9 10 14 13 15 19 26 30 33
6 6 5 5 5 5 6 6 7 7 7 7 7 8 8 8 8 7 7 6 6 6 5 4 3 3 5 2 3 6 5 3 3 5 12 15 16 14 8 6 6 8 8 6 6 4 4 5 3 0 3 1 4 2 2 2 1 2 3 3 5 6 5 9 8 12 9 10 13 9 15 18 12 12 5 9 15 13 10 8 8 10 10 10 14 21 26 30
7 7 6 6 7 7 7 7 7 7 7 7 7 7 7 7 7 7 6 5 5 5 4 4 3 4 5 2 3 4 3 4 3 8 13 14 16 13 6 5 5 7 7 6 5 4 4 3 1 2 3 1 2 3 2 3 2 3 3 1 5 6 7 7 6 10 8 10 11 10 14 10 8 15 12 14 15 5 5 7 8 9 10 11 13 19 24 27
8 8 8 8 8 8 8 7 7 8 8 8 8 8 7 7 6 5 5 4 4 4 3 3 3 4 5 4 4 3 5 1 6 11 13 14 17 14 6 5 5 7 6 5 6 5 3 2 3 2 2 1 1 0 4 3 3 4 3 5 5 8 10 4 6 8 8 14 12 9 11 9 14 15 12 18 15 6 7 7 10 12 13 16 17 20 22 22
8 8 9 8 8 8 8 8 9 10 10 9 7 7 7 8 7 6 4 2 2 2 2 2 3 4 5 8 9 7 6 1 9 13 13 14 18 15 6 5 6 7 5 6 8 5 4 6 4 2 3 3 1 2 3 3 7 8 5 7 9 13 13 8 9 10 14 19 13 13 14 11 18 13 8 15 12 6 9 11 14 16 17 21 21 21 20 20
8 8 9 9 9 8 8 9 11 12 10 8 7 6 6 6 7 7 5 2 2 1 2 2 3 3 4 8 7 7 4 4 11 13 13 16 19 16 7 5 7 7 6 8 6 1 4 5 3 2 3 1 1 1 1 5 8 8 8 7 9 12 12 12 13 15 18 17 14 20 20 15 18 15 10 12 8 6 9 12 15 16 18 19 18 17 18 19
9 9 10 10 10 9 8 10 13 12 10 9 8 7 5 3 4 7 6 4 2 1 3 4 4 2 5 6 5 5 3 7 12 14 14 17 19 14 7 7 9 7 9 10 8 4 3 2 0 1 3 2 2 1 2 5 4 4 10 9 11 12 10 13 13 13 14 10 15 23 16 11 12 11 11 8 5 5 9 12 11 13 14 13 13 15 16 16
10 10 12 12 11 10 9 11 13 12 11 11 10 9 7 4 1 7 8 6 3 4 6 8 8 6 8 6 7 5 4 9 13 15 14 16 17 11 8 10 9 7 9 10 12 9 3 2 2 2 4 1 2 2 4 5 4 6 12 11 13 12 6 11 13 12 12 8 18 22 12 7 5 6 7 3 3 5 9 11 8 11 11 8 11 13 15 16
10 11 12 13 13 11 10 11 12 11 11 11 11 9 8 6 4 7 8 7 5 7 10 14 16 17 18 12 7 4 5 9 13 17 15 15 16 9 9 11 9 10 8 8 10 8 5 1 1 2 3 1 1 4 5 5 9 13 16 12 10 11 6 10 13 10 9 8 16 22 16 12 10 6 5 3 3 5 10 10 7 9 8 7 9 11 14 15
10 11 12 13 14 11 10 10 10 11 11 10 9 7 7 7 8 9 9 8 7 8 8 9 9 10 16 14 6 3 7 10 12 17 17 17 14 5 7 9 8 9 8 8 8 7 7 6 4 5 0 2 2 3 3 5 9 12 15 12 6 9 6 4 5 3 5 6 7 11 11 12 9 5 6 5 4 6 10 9 7 8 6 6 7 9 12 13
10 11 12 12 13 12 10 9 10 10 9 9 9 9 9 9 10 10 9 9 8 8 7 7 4 3 8 7 3 8 11 11 12 18 21 18 9 3 5 7 6 8 8 7 7 8 8 7 7 7 2 4 2 1 4 4 6 6 8 10 6 5 4 7 2 1 7 2 5 1 3 5 5 5 6 5 5 8 10 7 6 5 5 5 5 6 9 12
9 10 11 11 12 12 9 9 10 10 11 12 13 13 11 11 12 12 11 10 9 9 10 10 8 8 8 2 2 12 15 12 16 23 23 17 8 5 5 5 5 6 7 6 7 9 9 9 11 7 3 4 1 2 4 4 4 4 4 4 2 3 2 6 6 3 6 3 5 6 4 1 3 4 5 5 4 8 10 6 5 4 4 4 4 5 6 9
8 9 10 10 11 11 8 8 10 10 13 14 14 14 13 13 13 12 13 13 10 8 8 9 8 8 7 2 3 13 17 17 21 25 22 16 10 7 7 6 6 6 7 8 6 7 13 17 14 5 3 4 4 5 4 4 4 4 3 1 3 4 3 4 9 7 3 1 8 9 5 2 4 5 4 5 4 8 9 6 5 4 4 4 4 4 4 7
7 8 9 9 10 10 7 7 9 12 15 16 16 16 14 14 15 17 18 17 15 9 6 6 6 7 5 1 8 13 15 17 21 23 19 13 7 7 9 7 6 7 8 11 10 8 15 16 8 3 3 5 6 5 4 4 4 4 3 2 1 4 3 2 6 9 4 1 8 7 6 4 3 5 5 4 5 8 8 5 5 4 4 4 3 3 3 4
7 7 8 8 9 9 6 6 9 14 19 21 22 21 17 14 12 13 12 13 15 14 13 10 7 9 5 5 8 9 11 15 19 23 20 12 6 7 8 5 6 7 6 12 15 10 11 9 3 2 5 5 4 3 5 4 3 4 3 3 1 4 4 1 1 7 9 6 7 8 7 5 4 6 5 4 6 7 6 6 5 4 4 3 3 3 3 3
7 7 8 8 8 8 5 5 8 13 18 21 22 22 23 21 17 14 10 8 6 8 13 12 9 8 4 7 7 9 13 14 17 22 20 12 8 8 7 5 6 7 5 8 12 9 6 5 3 3 4 6 5 5 5 3 2 0 1 3 2 3 4 2 1 4 8 11 8 9 8 6 6 6 5 5 6 7 6 6 5 4 4 4 4 3 4 4
7 8 7 8 7 7 4 4 9 12 13 12 10 11 14 17 22 23 22 17 7 4 4 6 6 4 1 5 8 12 11 11 16 21 23 15 8 11 12 9 6 6 6 4 6 6 4 4 5 4 5 6 4 3 4 6 5 4 2 4 4 4 4 2 2 2 6 10 6 6 7 7 6 5 6 5 5 6 6 5 5 4 4 4 4 4 4 4
7 7 7 7 6 5 3 3 8 11 10 7 3 2 3 5 11 11 14 15 8 5 5 2 2 4 1 4 10 14 7 7 15 22 29 20 4 8 12 9 7 8 6 2 3 5 4 7 6 3 5 6 5 2 4 4 5 7 5 6 5 5 3 0 3 2 4 7 4 3 7 6 6 6 6 5 5 6 6 6 6 5 5 5 5 5 5 5
6 7 7 6 6 5 2 2 5 8 10 9 6 1 2 3 5 1 1 7 6 8 10 4 4 4 2 3 10 15 3 5 16 23 31 20 4 5 7 7 7 7 5 3 3 4 5 8 4 6 5 4 5 1 4 6 7 7 6 6 6 4 2 1 3 2 2 6 2 3 7 5 4 5 5 6 6 6 8 8 7 7 7 6 6 7 6 5
6 6 6 6 5 3 1 2 3 6 7 6 5 5 3 6 11 10 6 6 3 7 9 6 7 5 4 4 11 12 3 7 14 19 26 20 8 6 3 5 8 3 5 5 3 4 7 6 5 8 5 1 7 6 7 10 7 6 4 5 5 3 2 3 3 3 5 4 4 3 5 3 3 3 5 7 6 6 8 9 9 9 8 7 8 8 7 6
7 7 6 5 4 1 4 3 5 7 6 6 7 9 9 12 15 11 6 6 1 4 4 5 7 5 6 7 11 12 9 8 5 11 23 16 6 5 3 6 9 5 6 6 5 5 5 3 6 7 5 4 9 8 7 8 6 5 5 5 2 0 3 1 0 4 5 3 6 6 4 0 3 3 4 6 6 4 6 9 8 9 10 10 10 9 9 9
8 8 6 4 2 5 7 5 5 7 7 8 11 13 13 13 12 7 4 5 2 2 1 1 3 4 4 5 11 8 6 5 2 9 20 11 3 3 4 6 8 8 6 7 9 8 4 4 5 4 6 7 8 9 9 6 4 4 3 5 2 2 2 3 2 3 4 6 5 6 3 3 3 4 6 5 4 4 4 7 8 8 9 9 9 9 10 11
11 9 6 4 2 7 8 5 5 9 10 10 13 13 12 11 9 5 4 4 3 3 3 2 2 5 4 8 13 3 4 5 4 8 15 9 3 2 3 3 5 4 1 6 10 8 4 4 4 5 7 8 8 7 7 4 3 3 2 5 5 4 3 5 4 3 4 4 2 5 3 4 3 6 8 5 4 5 4 7 9 9 9 8 8 9 10 10
14 10 6 4 2 7 7 3 5 9 8 7 11 12 9 9 7 2 3 5 4 3 5 4 3 8 8 10 12 2 4 4 4 13 18 12 5 2 3 2 3 3 5 4 6 4 3 5 5 6 6 8 8 5 2 3 6 2 2 5 6 5 5 6 6 3 2 1 3 4 3 3 3 5 9 6 5 7 6 7 9 9 8 9 9 9 9 10
15 12 6 4 2 4 6 4 7 7 3 5 10 10 8 8 5 0 3 5 4 2 4 4 3 8 8 9 10 3 3 6 5 15 18 14 8 2 5 4 2 1 2 4 4 0 2 7 8 7 6 7 7 3 2 3 6 1 1 4 5 6 6 6 7 4 2 2 1 1 2 1 4 5 4 6 6 8 9 11 11 9 10 10 10 10 10 10
16 13 7 3 3 2 5 7 9 6 4 8 9 8 8 8 4 1 5 4 3 1 2 3 3 6 6 9 11 6 1 4 3 9 14 15 12 5 7 4 3 1 3 5 3 2 1 5 7 6 6 5 3 2 4 2 3 4 2 2 2 7 7 6 6 3 1 3 2 3 1 0 5 4 2 4 5 8 12 15 14 12 12 12 11 11 11 11
16 13 8 3 3 3 5 7 7 6 8 10 9 9 10 7 2 4 6 3 1 1 0 2 4 6 6 7 9 5 3 3 3 6 11 15 14 7 6 2 4 6 7 7 5 3 1 1 1 4 5 3 3 5 3 3 1 5 1 4 3 5 4 4 5 3 3 3 2 5 2 1 5 4 2 2 4 9 12 13 13 13 13 13 12 12 12 10
17 17 12 3 3 4 5 6 6 8 9 9 10 12 10 5 4 6 3 1 1 2 1 3 3 4 7 7 6 6 6 4 3 5 7 7 10 9 4 1 4 8 7 8 5 1 2 3 1 4 3 2 4 4 1 3 2 3 5 4 4 5 4 3 2 3 5 2 5 5 3 3 2 4 3 4 5 7 8 7 8 11 12 13 13 12 11 10
19 21 18 9 4 3 3 5 6 8 8 10 12 10 7 3 5 6 2 1 1 2 3 4 2 3 6 5 4 5 5 5 6 6 6 5 8 8 5 4 4 5 5 6 5 4 6 6 2 1 2 2 2 1 1 2 3 4 5 3 3 4 4 4 5 4 4 3 6 4 2 3 2 5 5 7 8 7 7 7 7 10 12 13 12 11 10 10
18 21 23 18 11 6 4 5 7 9 11 13 10 5 5 4 4 3 1 3 1 2 2 1 3 4 4 3 4 5 3 4 5 5 4 4 5 4 4 3 1 3 4 2 3 5 4 3 4 4 3 4 5 1 3 6 7 6 5 5 4 2 4 3 3 3 1 5 4 2 2 1 4 7 6 8 10 9 8 7 7 9 11 12 11 11 9 8
16 19 21 23 18 12 8 7 8 11 12 11 6 4 6 5 2 1 3 2 1 1 1 1 3 3 3 4 4 4 3 3 4 5 3 2 4 3 2 3 1 2 1 1 1 3 2 4 6 5 3 3 5 3 2 3 4 5 3 4 4 2 3 2 3 3 3 5 3 1 2 2 4 6 6 7 8 8 7 7 7 8 9 11 11 10 9 8
15 18 19 22 21 16 10 8 10 12 11 7 5 5 7 4 1 1 2 2 1 2 1 1 3 3 4 4 2 3 3 2 2 4 4 3 4 3 4 5 5 3 2 3 1 1 2 3 3 2 1 2 3 3 4 3 2 3 2 5 3 4 3 2 3 2 4 5 5 3 1 3 3 3 5 6 6 5 4 5 5 6 7 7 7 7 8 8
11 17 20 21 21 17 10 8 10 10 7 6 7 6 6 2 3 1 1 3 2 3 3 1 3 4 4 3 3 2 1 1 2 4 4 4 2 2 3 4 5 3 3 3 0 1 3 2 4 1 0 2 2 1 4 4 2 2 2 4 2 2 4 1 3 4 2 2 4 3 2 5 4 3 3 3 5 4 4 5 4 5 6 5 5 7 7 8
7 13 19 21 20 15 9 7 7 5 5 7 8 5 2 3 2 2 2 1 0 1 3 3 4 5 3 4 3 4 2 1 3 3 3 2 1 1 1 3 3 3 3 3 1 1 2 2 4 3 2 1 1 1 1 2 1 1 2 1 2 3 5 3 2 2 3 1 3 2 3 5 3 3 3 4 5 6 5 6 6 6 6 5 7 7 7 8
3 7 14 23 21 12 7 7 7 6 5 7 7 3 2 2 2 2 2 0 0 1 2 1 1 2 2 3 3 5 4 2 2 3 2 1 1 1 2 3 2 1 1 2 1 2 3 1 4 1 1 2 1 1 3 0 3 3 0 2 2 2 4 4 0 4 4 1 4 2 4 5 3 3 5 4 6 9 8 9 8 7 7 7 8 8 8 9
1 3 9 23 20 9 7 9 10 9 7 7 6 3 1 1 2 2 1 1 1 2 4 2 0 0 1 0 2 5 4 2 2 3 2 0 1 1 0 2 2 0 1 1 1 0 3 1 5 1 2 4 3 4 4 4 1 4 3 2 3 2 0 1 1 1 1 2 5 4 5 4 3 4 4 4 7 9 10 8 8 10 10 9 9 9 10 10
1 2 5 18 16 9 8 9 10 9 8 6 4 2 1 1 1 2 2 2 1 3 4 1 0 1 1 2 1 4 3 2 1 2 2 0 1 1 2 1 2 2 3 1 3 1 1 3 3 3 1 2 3 3 1 3 3 3 3 2 1 3 3 2 1 3 2 2 3 4 5 3 6 6 5 7 8 8 9 7 8 12 12 10 9 9 9 9
2 3 3 14 12 8 10 12 11 9 6 5 3 2 1 1 2 3 3 2 1 2 2 1 1 2 1 1 1 1 2 2 1 2 1 0 0 0 1 1 1 4 5 3 3 1 2 2 2 4 3 1 1 2 4 4 1 1 2 2 1 1 1 0 0 2 4 2 2 3 5 6 7 5 6 8 9 8 9 8 8 10 10 10 10 9 9 8
4 3 3 17 11 2 6 13 10 5 4 4 2 2 1 2 1 2 2 1 0 0 1 3 3 2 1 1 0 1 1 2 2 1 0 1 1 0 1 3 2 3 4 4 3 1 1 1 2 2 3 2 4 3 3 5 4 4 3 3 3 2 2 1 3 2 1 3 5 2 5 9 6 4 6 8 8 8 8 8 8 9 9 10 9 10 10 8
6 3 5 15 8 6 9 9 4 3 5 2 2 2 1 2 2 2 2 1 1 1 2 3 2 2 2 1 1 0 1 1 1 1 1 2 2 2 2 3 3 0 1 1 2 1 1 3 1 3 4 4 5 3 0 2 3 3 2 2 3 3 5 5 3 4 1 1 2 3 3 9 5 5 6 6 6 7 6 7 8 8 8 9 9 9 9 8
4 2 5 12 4 5 12 7 3 5 4 0 1 2 2 2 2 2 2 3 2 2 3 2 1 1 1 1 0 1 1 1 1 1 1 2 2 3 4 3 3 2 3 0 2 1 1 3 2 4 4 3 4 5 3 2 1 1 2 2 4 3 3 5 5 4 2 3 2 2 3 8 5 2 4 4 4 5 5 7 8 8 7 7 8 9 8 8
3 3 4 14 7 2 5 5 2 3 2 1 3 3 2 2 2 2 2 2 1 1 2 1 0 1 1 1 2 1 1 1 1 1 1 2 1 2 3 2 2 2 1 1 2 0 1 0 2 3 5 6 6 6 6 4 0 2 3 2 4 4 6 4 2 3 1 5 6 4 5 9 6 2 2 4 4 5 7 7 7 7 7 7 7 8 7 7
3 1 3 15 18 9 4 4 6 6 3 4 5 2 2 2 1 1 2 1 1 2 2 0 1 1 1 1 2 1 0 0 1 1 1 1 2 1 2 2 3 3 2 3 3 2 1 2 2 2 1 3 4 4 4 3 2 2 2 3 4 6 8 5 2 3 2 5 6 6 7 10 6 4 5 6 5 7 9 8 6 7 8 8 8 7 7 6
3 3 2 8 13 10 3 1 5 6 4 5 4 2 2 3 2 1 2 1 0 1 2 1 0 1 2 2 1 1 2 0 0 0 1 2 3 2 2 4 4 3 4 4 3 4 2 1 3 5 6 7 7 7 4 2 2 5 5 5 5 6 6 6 4 4 5 3 3 8 12 13 14 13 11 9 7 8 9 8 7 8 9 9 9 7 7 6
2 2 2 1 4 4 5 4 5 4 3 5 3 1 2 2 2 1 1 0 0 1 1 1 1 1 0 1 1 1 2 1 0 1 2 3 3 3 2 4 3 4 4 3 1 4 4 2 4 6 8 10 8 8 5 2 5 9 9 8 7 7 7 7 7 7 5 3 6 12 11 11 16 16 13 11 9 7 8 9 8 8 8 8 7 7 7 7
2 2 2 1 2 1 2 2 3 5 4 4 3 2 2 2 1 0 0 1 1 1 1 1 2 1 3 3 2 1 2 2 1 2 1 2 2 2 2 1 3 3 5 2 1 4 5 4 5 4 7 10 9 9 8 6 7 8 9 11 10 9 10 13 15 11 8 6 13 13 8 9 14 17 15 13 10 9 10 10 8 7 7 6 6 6 7 7
3 3 0 3 3 4 2 2 4 6 5 4 3 2 2 3 2 2 1 1 2 2 1 1 3 3 3 3 3 2 2 1 2 3 2 2 2 0 0 2 2 1 3 2 1 2 4 4 4 3 5 10 10 11 10 8 7 7 10 13 12 11 14 16 17 14 12 13 18 18 14 14 16 17 17 14 10 8 9 7 5 6 6 6 6 7 7 7
2 4 1 3 4 2 1 2 4 5 4 3 3 1 2 5 4 2 1 2 1 2 0 2 5 4 3 4 5 3 6 5 4 5 4 3 2 2 3 3 2 1 1 1 0 0 1 3 1 3 3 8 8 8 7 6 6 7 11 13 12 11 12 13 13 12 10 13 18 17 15 15 17 16 13 11 9 7 7 7 6 7 7 7 7 8 8 8
5 4 5 7 4 2 2 3 3 5 3 2 2 2 2 4 5 3 1 2 4 3 2 4 5 3 1 2 4 6 7 7 7 7 7 6 4 4 3 3 4 4 2 2 1 1 1 2 2 5 3 7 5 5 6 4 5 9 14 18 16 11 9 9 10 9 10 12 14 10 8 12 14 8 5 7 7 6 8 9 8 7 7 8 9 9 8 9
7 5 4 7 4 2 2 2 3 4 1 1 2 3 2 4 5 4 1 1 2 3 4 6 5 2 0 2 6 7 6 7 7 6 6 4 4 4 4 4 5 6 4 3 1 1 3 2 1 2 2 7 4 5 6 7 8 10 12 14 14 11 8 6 6 9 12 11 7 6 8 11 8 2 3 7 7 7 10 9 7 8 8 8 9 9 9 9
Wind_Direction
24 30 27 24 18 11 359 339 324 308 301 292 285 279 273 274 277 282 285 293 303 313 329 337 356 1 358 13 48 87 106 104 78 59 49 14 359 353 348 347 350 351 346 342 337 342 355 357 348 352 356 338 121 227 248 165 103 63 93 119 193 204 310 295 226 159 112 89 36 26 27 93 92 32 89 40 30 41 55 52 50 50 50 50 52 61 66 71
12 15 12 10 1 353 342 327 316 304 296 285 278 270 268 268 269 276 280 286 297 305 320 327 345 356 359 20 91 120 135 115 64 56 30 5 6 357 347 352 356 356 355 357 350 11 27 342 335 0 33 140 278 256 303 214 100 99 124 100 217 204 93 333 298 114 106 121 94 59 51 62 45 351 52 61 34 35 49 35 39 49 42 43 46 55 62 67
4 4 358 353 340 332 325 318 313 305 298 288 278 270 267 264 265 270 275 279 289 296 311 323 341 359 360 11 127 144 170 150 47 39 5 2 5 356 349 353 2 3 2 6 345 352 359 298 308 352 70 189 284 62 107 305 134 156 123 93 229 195 87 9 32 95 118 128 99 73 66 57 29 9 68 93 66 42 46 24 30 50 41 41 43 51 59 62
357 357 350 345 337 328 320 316 312 305 299 291 283 278 271 269 269 271 275 279 287 295 307 324 347 4 0 5 131 155 172 61 28 328 350 359 360 356 351 348 2 4 358 359 344 331 301 293 278 197 105 214 302 54 151 249 197 134 91 140 195 172 72 25 64 98 107 105 95 90 76 68 46 35 48 103 74 40 38 25 31 57 51 51 49 52 59 61
353 353 347 343 336 330 326 321 318 312 307 299 290 282 274 270 269 268 273 279 286 296 315 336 352 11 17 38 130 155 130 50 326 333 354 357 360 356 347 345 354 356 353 356 349 345 304 269 145 75 82 182 330 39 223 243 137 89 23 120 168 144 85 40 71 91 95 89 85 80 73 87 76 44 39 77 81 58 38 30 39 57 57 60 60 60 62 62
355 351 347 343 339 337 334 331 331 331 325 315 302 288 277 266 261 259 261 271 285 292 311 336 357 19 33 78 109 115 111 71 317 346 354 355 360 353 342 333 348 355 350 5 9 21 13 13 78 67 58 72 80 210 251 278 86 100 20 30 67 96 96 81 77 84 93 84 75 77 83 104 91 63 44 69 79 84 67 55 60 61 65 70 67 66 64 63
358 354 353 349 347 346 340 340 340 339 335 327 319 303 286 268 255 248 245 258 271 284 328 352 15 34 64 100 90 70 96 25 332 353 353 355 356 348 341 327 345 357 359 24 16 31 53 37 51 103 74 61 141 243 275 358 63 93 81 55 70 83 94 102 95 92 88 85 87 92 87 83 88 85 56 69 77 83 80 73 72 70 70 71 68 66 67 68
7 6 5 1 357 351 345 348 347 346 346 347 347 334 311 278 250 234 226 228 242 286 8 7 12 33 98 126 98 56 62 330 340 357 354 353 354 348 345 345 350 1 37 42 21 90 83 47 49 75 72 79 171 266 359 55 56 87 111 100 89 88 98 104 97 96 91 93 95 85 80 78 90 95 73 72 79 79 87 79 74 75 69 66 66 67 70 71
20 20 16 13 9 1 356 356 352 352 356 4 6 359 350 314 238 210 201 204 209 99 55 24 14 57 127 136 96 62 353 337 350 356 352 350 354 352 358 10 1 15 56 51 45 79 94 85 149 95 127 183 108 14 1 72 53 96 120 122 111 107 115 110 99 99 98 105 94 82 81 90 99 95 69 64 85 90 87 76 70 73 68 63 65 67 70 71
27 25 23 20 16 11 7 2 356 356 0 5 7 9 15 15 161 176 173 174 166 107 81 59 60 100 117 102 73 71 328 351 4 357 350 348 353 3 27 24 15 40 63 52 49 54 76 145 232 160 135 142 85 34 13 85 103 103 105 106 110 113 123 111 108 108 98 89 92 89 79 57 55 78 74 64 93 102 83 70 62 70 69 68 68 68 70 70
28 26 25 22 20 17 11 7 360 357 357 358 1 11 25 38 85 138 148 152 143 116 103 85 83 89 87 80 77 77 333 350 6 2 356 348 352 12 38 29 31 46 53 54 48 43 54 59 238 139 109 67 85 43 42 97 111 111 103 85 85 99 102 105 115 123 100 90 98 98 84 47 30 61 106 127 99 93 85 75 62 71 72 70 71 68 68 68
26 23 22 22 22 18 16 16 7 359 356 360 10 26 42 58 87 114 126 129 120 115 123 109 101 90 73 71 71 35 343 343 358 3 359 350 350 11 38 26 33 40 40 47 39 38 40 8 45 92 105 126 109 54 95 124 114 118 108 101 111 107 92 65 115 141 94 128 140 104 74 39 34 80 120 125 118 95 84 80 69 70 74 71 73 71 68 68
21 20 19 20 20 20 24 23 15 12 20 35 48 57 66 81 95 106 112 112 108 102 112 111 119 110 70 71 35 12 359 351 358 1 1 1 8 70 35 18 34 38 35 43 38 34 24 8 69 100 96 100 113 84 119 108 104 120 98 112 152 113 36 354 10 90 68 90 253 102 62 27 59 122 139 144 138 100 83 82 80 77 81 77 76 76 72 71
16 15 13 16 18 23 32 32 30 38 54 63 66 70 80 92 96 101 99 96 103 103 98 89 88 85 72 104 340 9 2 3 6 1 3 10 33 65 28 29 47 42 41 48 47 36 38 61 82 90 61 73 90 53 65 34 63 99 80 94 119 101 54 10 16 27 67 3 331 86 113 201 149 153 152 164 153 108 98 96 96 93 90 85 83 86 81 77
10 7 7 11 15 25 44 48 47 61 71 70 71 74 81 90 93 96 93 89 95 108 101 80 76 77 67 81 345 1 2 6 5 1 4 6 18 27 9 30 48 51 55 40 43 49 55 68 69 51 340 8 41 52 43 13 26 58 96 321 4 96 153 30 20 12 80 40 17 72 116 162 166 169 155 157 142 111 108 112 116 110 107 104 96 93 94 90
359 358 1 2 9 25 54 69 72 85 84 77 75 76 82 91 96 94 89 81 80 86 94 79 65 75 86 338 334 353 2 1 355 359 9 10 13 9 1 28 44 46 59 45 53 65 52 59 65 45 21 11 37 70 62 34 3 5 101 155 16 111 148 13 24 9 16 85 15 42 133 151 171 167 151 148 132 113 113 126 132 130 131 125 117 109 107 102
350 349 353 355 3 17 50 90 102 101 93 86 80 75 78 86 99 100 85 79 79 72 72 67 62 79 72 345 344 345 345 347 349 359 13 19 14 2 4 37 32 29 57 45 44 43 32 42 54 41 47 33 30 79 74 37 337 339 34 93 100 121 115 58 44 7 22 67 42 48 108 132 143 148 146 151 134 118 125 143 148 151 149 133 129 127 124 124
346 346 350 354 359 6 34 107 131 117 103 94 84 77 77 77 82 84 68 79 91 58 59 43 43 79 24 350 351 320 322 338 352 3 15 23 25 26 27 29 11 18 41 29 26 24 15 28 53 55 26 21 21 54 94 178 183 127 10 91 87 74 85 93 74 349 34 68 74 77 95 121 134 147 153 156 137 127 141 153 158 163 159 155 150 151 153 154
351 352 352 353 358 355 11 120 152 148 130 111 95 82 79 73 70 66 56 63 68 43 59 357 18 105 298 322 323 323 326 346 3 10 16 15 30 53 46 32 25 40 52 27 11 14 26 37 41 42 356 349 356 52 142 187 153 139 157 111 109 71 54 65 68 38 76 73 59 88 116 141 149 162 160 160 146 135 150 154 160 176 175 174 171 176 174 173
358 359 356 355 357 341 342 130 160 177 184 191 197 63 74 69 57 44 36 54 70 91 108 342 35 104 359 303 329 349 348 356 14 14 11 6 7 53 34 20 36 52 46 36 17 360 48 64 34 345 290 299 312 280 190 173 113 104 98 82 82 92 82 322 127 150 104 82 24 76 121 146 162 175 173 167 153 146 162 169 178 191 188 190 190 191 188 187
5 2 358 354 349 332 315 146 158 188 205 219 220 111 142 149 89 149 348 54 61 80 88 50 60 80 7 306 345 2 355 2 17 10 7 7 10 33 9 6 43 47 357 351 41 5 49 66 7 317 281 295 357 16 118 86 83 91 101 93 60 79 135 101 129 223 19 87 95 110 121 146 176 184 186 170 164 176 181 179 190 196 196 200 196 196 197 193
11 360 356 353 347 337 214 139 129 168 186 188 156 111 137 141 129 151 143 87 37 52 74 46 48 48 5 24 4 6 47 21 10 2 3 8 26 41 16 36 60 58 335 358 51 35 50 50 333 323 306 24 47 47 86 82 82 82 85 101 69 49 90 59 69 17 8 90 161 166 129 158 214 203 200 187 187 200 195 189 191 192 197 205 201 199 198 193
12 358 355 352 358 129 154 116 120 147 160 159 129 111 122 128 140 152 115 99 79 12 45 39 51 21 360 30 6 10 51 36 352 345 355 3 34 58 79 62 67 65 20 39 83 87 77 355 315 328 332 57 60 34 62 76 65 66 70 91 97 329 112 147 9 40 25 70 144 152 116 173 265 272 238 213 211 215 205 203 199 193 197 203 204 201 195 194
9 358 356 0 53 143 144 116 118 121 127 141 125 125 136 137 151 156 90 88 81 359 8 63 87 43 9 8 352 3 66 46 12 343 353 9 51 42 80 91 75 62 45 72 87 88 92 296 307 2 15 55 72 37 42 67 43 29 84 113 131 248 141 147 168 125 52 41 107 128 63 308 231 230 244 236 234 236 208 207 213 212 209 209 209 206 202 199
9 1 1 17 93 152 149 121 115 114 113 124 124 133 143 146 161 151 92 69 33 323 340 11 57 24 353 346 347 344 112 45 44 355 353 16 24 30 83 95 75 68 169 94 81 78 56 328 354 44 29 41 69 51 33 87 84 0 268 153 150 196 167 121 127 128 51 12 208 141 54 302 242 221 233 229 233 239 217 208 216 218 216 216 215 214 212 209
8 4 7 21 90 160 167 136 124 125 110 112 130 141 144 154 169 158 101 66 24 306 350 1 3 6 351 344 338 336 75 4 357 11 9 13 354 114 79 350 69 131 194 114 80 93 22 350 35 69 51 42 61 64 6 104 91 11 239 145 136 153 151 139 143 135 61 303 230 151 130 278 287 248 231 205 219 241 238 229 224 218 216 214 215 215 212 211
9 6 6 11 63 159 182 158 143 145 129 135 146 150 146 156 171 91 79 50 6 287 353 333 333 8 358 347 347 62 68 299 330 12 9 10 355 77 71 2 46 58 222 103 63 52 359 360 19 43 51 48 52 42 304 110 99 270 210 116 136 152 153 159 152 158 182 131 74 145 157 273 283 270 228 173 206 246 248 242 235 223 218 215 217 215 210 210
15 11 7 8 38 132 167 146 144 147 143 153 156 155 149 153 178 50 78 68 346 311 11 307 334 7 352 359 16 72 182 293 34 350 344 19 24 57 71 39 107 37 335 101 114 254 336 13 12 29 40 39 43 302 265 127 111 251 264 47 151 159 159 155 137 152 171 87 31 264 204 269 269 289 41 133 209 252 247 239 232 224 220 217 218 217 214 214
24 21 16 23 63 99 133 134 140 142 141 148 147 150 152 149 143 49 71 109 337 356 241 320 351 343 346 11 17 35 6 5 78 320 337 26 29 48 78 39 115 80 28 74 126 206 214 46 114 86 47 352 277 280 260 133 284 284 25 47 63 101 109 108 117 121 61 64 250 248 164 152 274 280 63 121 230 249 244 238 229 221 219 219 220 221 219 218
34 33 29 46 118 103 113 109 120 138 137 139 143 148 146 122 68 58 53 177 12 341 290 17 6 334 11 26 360 4 26 12 351 347 1 22 14 30 67 344 79 78 38 44 75 207 307 330 134 98 42 283 259 283 238 151 275 346 55 52 38 44 52 59 62 85 65 350 249 233 161 133 296 274 200 189 219 224 228 237 228 215 217 220 221 222 220 219
39 40 38 51 99 106 117 107 116 138 133 133 143 141 124 65 55 88 96 273 353 338 1 13 343 6 27 39 4 354 21 360 343 17 25 8 9 18 22 7 37 56 27 22 25 349 352 5 353 288 316 359 26 290 266 355 351 44 59 59 51 4 10 23 357 40 78 270 252 242 221 151 208 261 229 223 235 221 209 221 218 211 214 218 218 220 218 217
41 44 42 47 60 71 103 127 128 131 130 133 134 113 90 49 29 91 286 326 346 323 6 333 309 8 15 28 19 340 347 360 2 42 45 26 36 32 35 32 35 42 24 357 359 0 10 2 320 306 317 37 53 22 326 349 8 33 40 58 74 356 6 15 328 12 143 244 240 236 291 213 229 252 237 232 241 230 216 218 215 210 213 217 217 216 216 212
42 45 43 43 48 58 83 120 129 128 133 133 114 55 76 80 40 244 290 334 39 301 8 349 319 352 21 34 8 326 356 15 5 34 48 74 59 24 9 19 74 109 105 146 53 16 352 315 332 353 341 30 78 86 353 332 356 15 51 86 89 82 42 324 282 339 289 265 277 340 354 284 276 274 234 227 244 233 218 222 221 215 215 219 217 213 215 214
44 44 41 36 39 48 69 105 125 132 135 119 77 49 67 81 207 216 309 277 267 336 22 55 334 352 40 53 335 319 30 30 22 43 25 42 49 4 336 352 18 75 105 87 93 123 88 315 321 43 330 12 76 137 161 164 345 348 138 120 107 138 131 241 236 245 276 284 299 319 330 209 243 276 229 234 271 261 232 232 227 228 228 226 227 222 218 221
49 43 37 31 30 36 57 103 123 131 128 89 63 62 82 133 227 175 273 262 282 336 326 358 46 39 11 346 332 348 36 346 40 60 32 37 66 17 347 330 351 39 84 87 241 120 95 243 258 302 255 72 45 235 144 109 21 315 113 88 54 176 146 154 201 201 230 311 302 292 239 216 217 256 264 297 310 290 261 256 239 235 239 227 231 233 224 226
60 44 35 26 23 26 51 112 130 130 115 85 65 60 121 189 207 166 190 252 92 291 314 342 47 58 350 316 342 353 340 358 44 53 32 43 102 7 338 283 323 31 93 122 178 95 90 264 284 348 351 58 69 281 86 99 163 341 42 79 222 175 121 108 277 320 51 10 284 268 253 282 321 302 314 352 310 284 267 258 244 233 233 223 226 232 228 230
73 56 36 22 17 25 64 119 141 128 97 78 79 96 184 195 179 181 193 7 160 130 79 16 11 47 343 315 322 329 343 16 47 51 41 33 55 19 338 291 294 31 100 135 174 171 136 273 297 8 40 293 251 58 8 20 139 104 83 211 184 86 77 94 26 350 27 281 275 281 255 285 329 299 316 335 282 269 255 244 245 245 235 229 232 231 231 233
85 108 40 17 12 30 81 115 125 112 87 65 77 116 148 134 174 203 186 141 204 75 79 105 215 91 161 126 302 312 351 15 1 35 61 318 8 94 42 294 268 54 350 101 114 122 119 58 300 239 163 297 353 55 352 322 64 114 157 183 113 99 323 53 114 298 350 276 283 300 288 273 228 235 280 272 243 253 256 241 236 242 235 230 236 237 239 242
19 122 34 8 15 59 87 115 111 82 72 76 85 130 148 139 239 232 182 137 120 84 77 137 215 53 101 132 240 300 355 40 14 46 85 26 346 104 102 295 272 324 339 61 119 277 96 114 281 280 222 297 9 61 259 294 344 52 56 7 41 136 173 184 159 172 181 245 278 309 320 273 229 215 217 237 238 241 252 245 232 236 233 228 233 236 240 243
32 97 21 355 14 78 78 78 75 51 64 104 149 158 110 155 265 269 210 179 121 99 92 182 139 68 58 133 183 291 5 56 81 76 99 171 126 352 59 108 289 315 332 27 79 337 24 110 240 295 324 309 284 226 197 184 184 63 39 318 310 65 121 188 215 149 138 165 215 293 302 263 243 205 197 234 250 241 238 240 239 238 234 230 231 234 238 239
48 95 339 347 353 163 72 57 54 47 81 89 117 116 73 150 164 326 279 196 146 146 129 138 129 113 141 120 299 267 354 37 47 78 167 307 87 345 252 169 174 306 333 24 39 7 9 128 204 284 317 252 232 239 199 184 175 153 179 212 186 156 116 80 296 290 104 160 181 186 278 269 250 176 198 233 245 243 234 228 237 241 234 233 233 231 232 232
54 104 321 352 19 112 79 57 18 42 92 75 79 108 69 109 103 356 345 34 57 49 64 94 104 102 140 156 276 246 79 53 17 66 187 222 163 181 213 171 161 78 53 44 314 289 136 99 96 265 255 228 245 275 241 205 177 140 185 189 138 134 123 128 222 262 281 224 174 121 265 272 252 177 205 231 234 244 233 211 226 240 234 233 236 234 231 231
74 146 339 359 18 108 70 61 336 27 70 121 35 58 30 82 96 10 16 22 23 43 37 47 76 79 145 195 133 109 106 148 193 182 193 217 217 211 202 164 147 99 72 83 272 306 46 77 57 289 292 307 304 323 355 1 71 120 244 171 140 157 143 152 179 186 207 236 187 125 255 268 273 220 223 247 254 260 246 219 225 238 243 240 239 241 237 235
111 163 5 13 12 175 89 95 136 73 82 93 68 37 6 73 84 47 34 1 7 90 71 58 192 104 152 144 105 140 198 159 203 219 169 175 208 210 194 168 150 138 134 193 184 5 314 99 76 351 335 340 341 346 343 336 340 218 241 191 152 124 106 124 145 106 241 230 178 163 247 259 272 315 295 284 286 269 255 239 229 236 247 247 242 243 242 239
70 87 332 16 34 66 111 148 139 127 133 101 81 47 27 52 46 98 128 21 3 148 125 37 223 111 90 90 75 58 247 115 266 291 90 178 259 270 212 189 155 151 209 203 155 116 170 177 125 105 277 282 285 288 283 267 237 239 248 220 188 146 136 157 139 102 232 231 166 169 244 260 274 304 296 281 272 266 264 257 245 243 245 246 245 244 241 237
76 53 328 359 25 50 71 90 94 106 141 122 83 26 68 69 316 270 126 94 352 136 96 19 222 82 46 58 73 311 293 12 61 99 131 218 259 285 223 182 167 189 202 175 133 102 99 202 188 170 192 214 224 238 234 181 227 261 260 243 214 185 157 129 114 165 201 192 182 220 245 271 283 283 281 279 263 257 266 264 257 252 246 245 245 241 238 234
98 86 97 27 9 30 32 20 50 84 139 133 106 85 98 83 317 328 63 127 160 94 78 57 65 73 92 114 97 270 273 324 80 157 187 211 246 289 242 172 189 213 177 156 150 104 89 291 238 191 218 234 234 249 258 231 244 250 255 250 222 196 165 154 193 210 159 128 254 244 233 255 273 273 272 276 272 269 275 273 266 263 256 246 238 232 233 232
77 134 175 105 92 90 47 38 86 86 79 91 105 115 99 75 59 146 207 344 19 49 112 41 4 333 194 169 136 212 277 328 290 233 210 215 252 324 321 224 232 203 146 116 328 111 119 252 239 189 245 260 257 263 264 253 250 244 244 247 232 199 180 195 220 216 164 194 254 256 227 231 262 273 274 276 280 285 283 280 277 274 262 240 231 230 230 234
83 113 356 29 92 151 151 109 106 88 67 68 84 92 126 128 145 209 217 24 356 335 101 190 277 267 210 171 130 162 229 247 285 260 212 191 219 186 294 257 243 188 133 127 286 136 146 241 231 177 272 276 266 265 262 254 259 256 245 244 234 210 200 210 227 225 208 227 251 260 262 260 263 268 273 279 284 282 281 282 275 261 245 227 228 235 235 239
138 139 140 65 74 100 77 60 86 84 52 45 75 87 140 148 172 222 204 128 187 283 41 191 241 245 210 172 142 189 222 190 207 244 189 165 235 208 201 221 184 115 85 145 222 269 203 260 215 110 310 280 271 280 274 240 240 258 261 255 240 219 213 222 234 235 230 241 252 261 272 274 268 262 265 273 277 277 278 272 255 244 237 232 233 235 238 241
106 120 135 113 75 7 22 40 75 93 50 10 118 156 173 183 185 173 172 191 191 214 204 182 208 236 231 173 190 234 236 192 198 222 189 178 221 207 208 223 159 140 171 184 182 128 171 266 8 57 340 277 281 332 324 301 284 278 272 264 249 224 206 219 227 216 212 228 248 263 267 263 264 259 243 249 250 261 273 269 259 248 236 231 234 236 237 240
100 89 108 105 79 359 65 57 46 80 93 276 158 162 199 213 192 149 113 260 216 214 203 171 164 173 280 241 234 239 227 194 204 221 196 197 234 222 223 222 168 153 162 167 174 141 144 161 71 64 296 275 298 348 339 342 326 286 264 251 239 215 198 224 246 225 212 211 223 239 241 252 265 263 249 264 262 262 270 266 258 255 242 227 229 235 239 242
Height
822 821 820 820 820 819 818 818 818 817 817 817 817 817 816 817 817 817 817 816 816 815 815 815 814 813 812 812 813 813 813 813 813 813 815 816 816 814 813 812 811 811 809 809 808 808 809 808 809 808 809 809 811 811 810 811 812 815 824 832 837 839 837 835 836 836 840 852 858 855 852 851 857 862 862 866 871 873 872 874 880 881 883 887 888 887 885 884
822 821 821 820 820 819 819 818 818 817 817 816 816 816 816 816 816 816 816 815 815 815 814 814 813 813 812 812 813 813 814 813 813 814 815 816 815 814 813 812 811 810 809 809 809 809 809 810 809 809 810 811 812 811 811 812 811 817 828 833 836 839 838 837 837 836 843 856 860 861 861 857 862 865 863 875 890 884 880 886 887 887 890 890 890 888 887 886
821 821 820 820 819 819 818 818 818 817 816 816 815 815 815 815 815 815 814 814 814 814 813 813 813 813 812 812 812 813 814 813 814 815 816 816 815 814 813 812 811 810 809 809 809 809 809 810 810 811 811 813 813 812 813 813 813 819 825 832 837 836 837 840 840 840 847 854 857 864 864 865 872 869 869 881 891 891 894 900 896 895 898 897 896 893 891 890
820 820 819 819 819 818 818 817 817 816 816 815 815 815 814 814 814 813 813 813 813 813 813 813 813 813 813 812 812 813 813 814 817 817 816 815 814 814 812 812 810 810 809 809 809 808 809 809 810 811 812 814 814 814 814 813 814 819 823 829 835 835 839 846 846 847 851 853 857 865 864 872 880 876 877 876 883 901 907 906 904 903 903 901 900 898 896 894
820 819 819 818 818 818 817 816 816 815 815 814 814 814 813 813 813 813 813 813 813 812 812 812 812 812 812 812 812 812 813 819 820 817 816 815 814 813 812 811 810 810 809 808 808 808 808 809 810 811 812 814 815 815 815 814 813 822 831 832 832 834 843 853 852 851 854 854 859 864 866 877 881 884 889 882 891 912 912 909 908 905 905 904 902 901 899 898
819 819 818 818 817 817 816 815 815 814 814 813 812 812 812 812 812 812 812 812 812 812 812 812 812 812 812 812 812 812 815 823 820 815 816 815 814 813 812 811 810 810 809 809 808 808 808 808 810 811 813 815 817 816 815 816 813 823 837 838 838 836 845 856 854 855 856 856 863 868 874 880 882 894 901 894 904 914 911 912 909 907 907 905 904 902 902 902
819 818 818 817 816 816 815 814 814 813 812 811 811 810 810 810 810 811 811 812 811 811 812 812 812 812 812 812 812 812 816 821 818 816 816 814 814 813 812 811 810 809 808 808 807 808 809 809 811 813 815 816 819 818 816 816 816 827 841 846 848 845 850 858 857 860 858 860 870 871 877 882 883 897 905 903 911 913 912 913 909 909 909 905 906 904 905 906
819 818 817 817 816 815 814 814 813 812 811 810 810 809 808 808 808 809 810 811 811 811 812 812 812 811 812 812 812 815 819 821 818 817 816 814 813 812 811 810 809 809 808 808 807 808 809 810 813 813 817 818 818 818 817 818 821 831 843 849 852 852 857 860 860 862 862 867 873 872 882 890 889 896 906 910 914 914 913 912 910 910 908 907 907 907 908 908
819 818 817 817 816 815 814 813 812 811 810 810 809 808 808 807 807 808 809 810 810 811 812 811 811 810 811 812 812 818 823 821 819 817 816 814 813 811 811 810 809 809 808 809 808 808 809 812 813 812 816 818 817 817 816 819 825 832 839 847 851 855 860 858 860 864 865 869 868 874 890 895 892 894 907 916 915 915 913 911 912 910 909 910 910 910 910 910
819 819 818 817 816 815 814 813 812 811 810 809 809 808 807 807 806 807 808 810 810 811 812 811 811 810 811 812 814 822 824 820 819 818 816 814 813 812 811 810 810 809 808 809 809 809 810 812 812 811 813 815 817 819 819 821 828 834 839 847 850 855 859 856 861 863 865 869 865 875 893 895 890 893 909 918 915 915 913 912 913 911 911 912 912 913 912 912
820 819 818 817 816 815 814 813 812 811 810 809 808 808 807 807 806 807 808 809 811 812 812 812 811 811 812 812 818 825 823 820 819 817 816 814 813 812 811 810 810 809 809 810 810 810 810 811 811 811 814 816 818 821 823 825 830 836 840 851 856 857 861 860 862 861 862 871 870 873 887 895 894 900 914 917 915 915 912 914 914 913 914 914 914 914 914 914
820 819 818 818 816 816 814 814 812 811 810 809 809 808 808 807 807 808 809 810 811 812 812 812 812 812 811 813 820 824 821 820 819 817 816 814 812 811 811 810 810 810 810 810 811 811 810 810 809 811 815 816 820 823 826 828 832 836 836 850 861 858 859 862 861 860 859 868 874 865 872 898 908 910 917 916 915 915 912 915 916 915 916 915 916 915 915 915
821 820 819 818 817 816 815 814 813 812 811 810 809 809 808 808 808 809 810 811 812 812 813 812 812 812 811 816 822 821 820 820 819 817 815 812 811 811 811 811 810 810 810 810 811 811 810 810 809 812 815 816 821 823 825 826 830 835 836 846 856 853 858 863 859 859 860 866 871 858 866 906 920 914 916 916 915 914 914 917 917 917 917 917 917 916 917 916
821 820 819 818 817 816 815 815 813 813 811 811 810 809 810 810 810 810 811 812 812 812 813 813 813 811 813 820 822 820 820 819 817 816 813 812 811 811 811 811 811 811 811 812 812 811 811 810 809 812 816 819 822 822 824 828 831 837 839 845 852 851 858 866 863 861 860 865 869 858 877 915 919 914 915 915 915 914 915 918 917 918 917 917 918 917 918 917
821 820 819 818 818 816 816 815 814 814 812 812 811 810 811 810 811 811 812 813 813 814 813 813 813 812 817 821 820 820 820 817 816 815 813 813 811 811 812 811 812 812 812 812 812 813 812 809 811 818 822 822 823 825 828 832 836 841 842 846 853 853 856 864 867 867 860 866 871 861 885 918 915 913 915 913 915 913 915 919 917 919 918 918 918 917 918 918
821 820 819 818 818 817 817 816 816 815 814 813 812 812 812 812 813 812 813 814 813 814 813 814 813 813 821 825 821 820 820 818 817 816 815 813 812 813 812 812 812 812 812 813 813 813 812 812 818 826 827 828 833 833 832 837 841 846 847 848 854 854 855 861 869 875 868 864 870 867 887 915 913 912 914 913 916 914 915 919 917 918 918 918 918 918 919 918
821 820 819 818 817 817 817 817 817 816 815 814 813 814 813 814 814 813 814 814 815 815 813 816 815 814 823 826 824 824 823 822 820 817 816 814 814 814 813 813 813 813 813 813 813 814 815 818 825 831 833 839 845 837 832 842 846 847 850 851 857 858 856 861 867 877 876 868 876 884 895 910 911 912 914 914 914 914 916 918 918 918 918 918 919 918 919 918
820 819 818 818 817 817 816 817 817 816 816 815 815 815 815 816 816 815 816 815 815 814 815 818 816 821 830 829 828 829 826 824 822 819 816 815 815 814 814 815 814 815 815 816 819 820 822 827 831 835 840 845 850 842 835 846 850 849 851 850 856 860 860 866 871 878 882 882 889 895 902 910 912 913 914 914 914 915 917 917 917 918 918 919 918 918 918 918
819 819 818 817 817 816 816 817 817 817 816 815 815 816 816 817 816 817 818 817 819 822 827 829 826 832 839 834 832 831 827 826 823 820 818 817 817 816 816 817 817 817 819 824 828 829 831 836 840 845 851 852 855 854 845 848 851 851 856 855 855 861 869 875 879 884 886 891 900 900 904 912 913 913 913 914 915 914 916 917 917 918 918 918 918 918 918 917
819 818 817 817 816 816 816 816 817 816 815 815 816 816 818 819 822 827 826 823 828 833 835 836 834 836 838 835 832 829 827 826 824 821 819 819 818 817 818 820 822 823 828 833 833 834 836 845 858 861 861 858 858 860 855 854 855 855 860 861 861 869 878 880 883 889 887 891 905 906 906 911 911 912 913 913 915 915 916 917 917 917 917 917 917 917 916 916
818 818 817 816 816 815 815 815 816 816 815 815 816 817 819 820 825 831 832 832 835 835 835 836 836 836 836 836 834 831 830 828 825 823 822 821 818 820 825 827 828 832 840 840 838 839 840 853 867 865 863 863 861 860 856 855 856 859 861 862 867 874 878 880 883 889 887 889 905 910 908 912 911 911 912 912 914 914 914 915 915 915 915 915 915 915 915 914
818 817 817 816 815 815 814 815 815 815 815 815 815 817 819 819 821 824 827 834 838 836 836 837 836 836 836 835 835 833 833 831 829 827 826 823 820 825 832 836 838 843 846 841 841 846 851 861 866 864 865 863 862 863 858 856 859 861 861 860 866 874 878 880 883 891 891 889 904 912 908 910 911 910 910 911 912 911 910 911 911 912 913 913 913 912 912 913
818 817 816 816 815 814 814 815 814 815 815 815 816 817 819 820 821 821 822 830 838 838 837 837 837 838 837 836 837 834 834 838 838 835 831 827 828 832 837 843 848 850 851 847 846 852 857 863 865 867 868 858 859 866 859 855 861 862 861 862 867 873 874 873 880 894 896 892 900 909 911 912 912 910 910 908 907 908 907 908 908 908 909 908 908 909 909 909
817 816 815 815 814 814 814 814 814 815 815 815 816 818 820 820 821 822 824 831 839 839 838 838 838 839 839 839 838 837 837 841 843 840 836 833 834 837 841 846 850 855 861 860 856 859 863 867 869 869 868 861 858 864 861 854 861 866 864 865 868 869 870 871 880 890 894 897 903 904 900 901 908 910 907 907 906 906 906 906 907 906 906 906 905 906 905 905
817 815 815 814 814 814 814 814 815 815 815 816 817 818 820 821 822 822 824 833 840 840 838 838 839 840 841 840 839 839 839 841 844 843 840 838 838 839 842 845 849 859 866 861 858 864 868 870 871 865 864 866 860 863 871 864 861 867 865 865 867 866 869 875 882 883 881 886 896 895 877 877 903 913 905 904 906 905 905 905 904 904 904 904 903 902 903 902
816 815 814 813 813 813 814 814 815 815 816 817 818 819 820 821 822 822 824 836 846 846 842 840 842 842 841 842 840 839 841 844 845 844 840 840 840 839 843 847 850 857 862 859 859 865 870 871 872 868 864 866 864 866 874 871 862 862 864 866 870 869 868 873 879 877 871 872 887 893 874 869 891 901 900 905 907 905 904 902 901 901 901 901 900 899 899 900
815 814 813 813 813 813 813 813 814 815 816 818 819 820 820 821 822 821 827 842 851 850 846 843 844 844 844 845 842 841 848 850 844 844 843 842 841 839 843 850 850 854 860 859 860 867 871 869 870 871 866 863 866 866 871 875 866 858 863 870 874 872 868 871 873 871 872 875 887 895 886 878 877 881 897 905 905 906 903 900 898 897 898 897 896 896 895 895
815 814 812 812 812 812 812 812 814 815 816 818 819 819 821 822 822 822 831 849 856 851 850 849 845 845 847 847 845 847 852 852 848 850 847 843 843 842 847 857 858 860 863 856 859 873 874 871 871 870 866 864 866 868 871 874 866 858 866 873 874 872 868 869 869 869 874 875 878 886 890 884 872 879 905 908 905 907 899 893 893 891 894 893 892 893 891 892
816 814 812 812 812 812 812 812 813 815 816 818 818 820 821 820 822 827 838 854 857 852 853 851 847 849 851 850 850 853 853 852 855 855 849 847 847 847 853 862 861 862 863 857 861 873 873 872 874 872 871 870 868 870 872 870 866 865 872 874 872 875 873 871 869 868 874 873 870 876 882 881 869 876 904 908 901 897 886 884 886 884 888 888 887 888 887 889
816 814 812 811 811 812 813 813 814 815 817 818 818 820 821 822 828 837 848 857 858 856 856 853 854 858 858 853 854 858 857 857 860 857 853 856 854 853 859 861 860 861 865 866 867 874 874 872 874 873 875 876 871 873 874 872 872 871 872 866 861 870 874 875 879 876 873 869 868 872 876 879 871 869 888 894 881 874 871 873 877 880 883 882 883 884 884 885
817 815 813 811 812 812 812 814 815 816 817 818 819 820 821 828 838 845 855 861 860 860 859 859 862 863 862 862 861 862 861 860 864 861 860 864 863 863 864 863 864 862 864 870 871 873 874 870 874 875 876 878 872 870 873 874 875 870 866 858 852 863 869 867 873 872 866 862 867 876 877 879 873 859 866 875 871 871 868 862 867 874 877 878 878 879 880 881
817 816 814 813 813 812 813 814 815 816 817 818 820 820 823 834 847 856 861 862 862 864 865 866 866 865 866 868 867 867 865 864 868 869 871 876 877 879 880 879 879 868 864 873 874 872 873 874 878 876 875 878 871 866 866 867 869 866 864 862 857 867 872 865 870 878 874 867 873 882 876 874 870 852 850 860 863 869 869 863 865 869 871 873 874 874 876 878
819 818 816 815 814 814 814 815 815 816 818 818 820 823 827 836 853 869 869 863 866 870 871 870 869 868 868 867 868 871 870 868 871 873 878 881 882 886 888 890 891 877 868 876 877 872 873 877 880 874 873 878 874 871 868 866 871 870 872 871 864 871 876 874 885 894 882 869 876 887 880 871 863 849 849 856 857 864 868 867 867 867 868 869 869 872 873 874
820 818 817 816 816 815 815 816 816 818 818 818 821 825 831 843 862 874 871 868 873 873 873 875 872 868 868 868 871 873 870 870 874 875 877 879 881 884 885 886 889 885 878 878 881 880 873 871 875 875 875 878 878 878 877 876 877 877 883 879 870 876 879 874 880 882 877 878 884 886 875 862 852 848 858 863 865 870 868 867 869 866 868 868 867 870 871 871
820 819 819 817 817 817 817 817 817 818 818 819 825 832 841 856 870 873 870 874 878 873 873 878 873 866 868 871 874 875 872 871 875 878 879 883 887 889 890 888 889 891 883 874 881 888 879 871 876 879 879 879 878 881 883 880 876 881 888 878 873 884 885 885 891 890 893 899 893 880 865 857 853 855 868 872 868 870 867 866 869 865 866 868 867 869 868 868
821 820 819 818 818 818 817 818 818 819 820 819 828 846 860 870 874 873 875 878 879 878 874 872 870 867 869 871 873 875 873 872 876 877 881 890 893 893 894 893 893 894 888 879 884 887 877 871 877 880 878 879 880 881 883 879 872 878 882 876 883 894 888 888 899 904 908 901 890 881 864 856 857 852 863 875 867 865 868 866 865 864 864 866 865 865 866 865
820 820 820 820 819 819 818 818 818 819 821 822 834 859 876 879 878 880 881 880 881 883 875 868 871 873 873 872 872 874 874 873 875 875 880 889 890 892 895 894 893 895 894 891 889 889 882 872 877 881 876 878 884 881 881 883 880 875 874 878 890 895 892 895 897 900 908 900 888 885 869 858 860 852 853 865 862 857 863 863 863 864 864 863 862 862 862 862
821 820 821 821 821 820 819 818 819 819 823 835 855 873 880 880 881 884 884 882 882 881 873 869 874 878 878 875 875 877 875 872 874 878 883 885 885 891 896 894 893 896 899 896 888 892 891 874 874 884 880 879 885 881 878 883 884 878 877 884 887 883 887 898 897 893 901 902 890 888 885 872 863 855 844 844 845 844 849 858 864 862 860 860 860 859 859 859
820 821 823 826 823 822 821 820 821 821 825 845 867 875 877 880 882 883 883 884 883 878 873 875 878 878 880 880 878 880 879 876 880 883 883 884 885 891 897 896 893 893 898 897 888 892 895 879 872 881 885 882 881 881 879 879 882 883 883 887 887 884 888 894 899 896 895 900 895 890 887 868 849 847 839 832 837 838 839 849 856 856 856 857 856 856 856 856
820 823 827 828 824 824 824 820 823 830 838 857 872 875 877 879 880 882 884 883 881 877 876 879 880 877 879 884 883 883 882 881 883 884 884 887 888 890 897 900 896 894 895 896 892 894 896 885 874 878 886 885 879 879 879 876 880 882 881 885 885 890 897 894 898 904 897 896 898 894 881 855 839 842 838 832 836 838 838 843 845 850 854 853 853 853 852 852
820 825 828 827 825 825 823 824 839 852 858 867 873 875 878 877 877 881 883 883 882 879 879 881 880 879 881 884 884 885 884 882 885 887 886 889 888 887 896 900 899 899 895 890 892 894 892 886 881 878 878 875 876 885 888 884 884 881 878 881 881 884 892 889 892 907 906 898 896 894 880 850 833 837 836 833 834 834 840 843 841 845 849 849 851 850 849 849
823 829 831 827 825 823 823 838 860 867 866 870 872 874 877 876 877 879 880 882 881 878 879 881 881 884 885 883 885 886 884 882 886 888 886 889 890 889 896 900 900 901 897 892 896 898 895 894 889 878 874 878 883 889 892 890 888 885 882 886 889 888 887 883 883 894 903 904 905 909 893 852 829 834 834 832 835 835 841 844 841 841 843 846 848 846 846 846
829 832 831 828 827 824 827 847 867 871 871 876 877 877 878 877 878 879 879 880 880 878 879 881 883 884 884 885 886 886 885 883 884 887 887 890 893 893 896 899 899 900 899 896 897 898 896 894 888 876 874 884 889 890 892 892 890 887 885 889 892 890 886 885 889 892 894 894 898 908 895 848 826 839 841 838 844 843 844 846 842 841 842 843 844 842 842 842
832 833 831 829 825 823 829 846 862 871 875 876 875 877 879 879 879 880 880 880 881 880 879 882 885 884 884 887 885 885 886 883 882 888 890 890 892 894 896 898 898 898 897 895 896 897 892 890 888 879 871 872 876 880 882 885 888 886 884 888 889 892 897 898 902 905 896 886 886 893 881 842 828 843 844 842 846 842 841 845 844 843 842 840 840 840 840 840
831 833 834 832 826 827 839 852 858 866 872 872 873 877 877 879 882 882 881 882 884 884 881 882 885 884 885 887 885 887 889 884 882 888 890 891 893 895 896 896 897 896 896 898 900 897 893 892 890 881 873 871 867 864 866 873 883 884 882 886 887 890 894 889 895 903 894 889 893 884 859 833 827 836 837 838 843 839 837 841 843 844 841 839 839 837 837 839
831 835 839 839 837 840 852 861 859 861 867 867 871 878 878 877 882 884 882 882 884 885 882 883 885 885 885 886 884 885 887 888 888 886 887 889 891 893 895 895 895 895 895 898 900 898 897 897 894 884 877 873 865 861 868 876 878 876 877 881 884 889 891 888 893 895 887 891 892 871 849 838 832 832 832 832 835 835 835 837 838 838 837 837 836 835 835 836
834 841 847 845 846 850 855 862 861 860 865 866 868 876 879 878 882 883 881 882 884 884 883 884 886 883 882 885 884 883 885 888 888 886 888 891 891 893 895 894 895 894 894 898 899 898 895 890 892 891 883 878 875 873 878 883 878 874 874 876 878 887 894 890 884 877 878 885 874 853 851 854 840 830 830 829 830 831 832 832 832 831 831 832 832 833 834 833
837 846 853 848 849 856 857 860 864 864 866 869 872 877 879 879 880 879 879 882 884 884 882 883 885 885 884 885 884 883 884 885 885 887 890 892 892 892 891 893 895 893 894 898 898 897 894 887 892 897 885 879 884 882 881 883 881 878 877 875 876 884 889 883 873 870 874 871 852 838 846 851 838 827 825 824 827 829 828 828 828 828 828 828 829 829 830 830
841 846 853 852 852 860 864 864 865 864 865 869 872 876 877 876 878 881 884 883 881 884 884 879 881 886 887 887 885 884 883 879 879 884 888 890 892 892 888 887 892 895 895 894 896 899 893 885 894 902 890 881 882 881 882 884 881 878 876 874 874 878 881 876 868 866 869 862 848 841 846 845 833 825 823 822 824 827 827 827 827 826 825 825 826 826 826 827
838 840 847 851 855 863 866 865 863 860 866 871 870 874 878 875 875 882 886 883 877 881 884 879 879 885 887 887 886 883 881 879 877 881 887 888 889 891 887 880 884 895 895 892 897 900 892 887 896 903 893 880 873 873 879 884 884 879 873 868 869 872 876 877 872 868 868 864 853 849 854 848 830 821 823 824 824 825 825 824 824 824 823 823 823 824 825 825
834 836 839 843 854 864 863 865 866 860 862 869 869 873 877 875 875 879 882 885 882 879 881 880 881 885 887 887 886 881 881 883 881 881 885 884 882 884 883 880 882 887 890 893 896 895 892 892 897 900 890 875 869 872 874 878 881 877 865 856 856 861 865 866 865 863 860 854 851 856 858 842 820 817 822 822 822 823 821 819 820 821 821 822 821 822 823 822
834 837 838 839 852 865 864 865 868 862 862 870 872 874 875 874 879 880 876 882 887 883 883 884 883 885 884 882 883 881 882 884 884 884 886 885 884 884 882 883 883 881 884 893 897 900 899 890 889 897 887 870 874 881 878 878 874 856 839 831 831 841 851 852 851 851 848 844 844 843 834 818 811 816 819 816 817 818 815 814 816 816 817 819 819 819 819 819